Погода в Емашах

Россия / Республика Башкортостан     55°56′28″N   58°36′15″E
темп.,
°C
ветер,
м/с
пор.,
м/с
влажн.,
%
обл.,
%
осадки,
мм/ч
давл.,
гПа
погр.,
м
19 января, вт
вт1923:00−25всв119731 0.0 102220
02:00−23св119195 0.0 102120
05:00−21св228797 0.0 102023
08:00−17всв2484100 0.0 1019110
11:00−13вюв41079100 0.0 1018306
14:00−10вюв61280100 0.0 1017545
17:00−10вюв71393100 1.3 1016610
20:00−11юв81592100 1.2 1014662
20 января, ср
ср2023:00−11юв71493100 1.8 1015698
02:00−11юв51094100 0.8 1014556
05:00−13юв4895100 1.4 1013379
08:00−14ююв2497100 0.8 1012156
11:00−14юз3794100 0.9 1013364
14:00−14зюз5793100 0.2 1013591
17:00−18зюз5994100 0.4 1014550
20:00−21юз41096100 0.2 1015514
21 января, чт
чт2123:00−22юз41096100 0.3 1016480
02:00−22юз41097100 0.3 1017509
05:00−22зюз4997100 0.7 1017480
08:00−23юз4998100 0.3 1017351
11:00−21юз4897100 0.5 1017412
14:00−19юз5895100 0.2 1017453
17:00−20юз4895100 0.3 1016390
20:00−21юз4896100 0.1 1016306
22 января, пт
пт2223:00−21юз3796100 0.1 1016197
02:00−21ююз3797100 0.1 1016209
05:00−20ююз4798100 0.2 1015261
08:00−20ююз4798100 0.4 1016299
11:00−18юз4797100 1.1 1016377
14:00−16юз3595100 0.6 1016447
17:00−16зюз2497100 1.0 1017138
20:00−19юз129999 0.3 102020
23 января, сб
сб2323:00−20ю11100100 0.4 102320
02:00−23в1210093 0.0 102621
05:00−25в339597 0.1 102865
08:00−27в229866 0.0 103020
11:00−24вюв249682 0.0 1030113
14:00−19юв2493100 0.0 1029231
17:00−17юв4794100 0.1 1026236
20:00−15юв4896100 1.6 1025262